^^
Saratoga-Weather Station Historical Data
Daily Summary for January 21, 2021 Units:  Metric    English   Both
Daily Weekly Monthly Yearly Custom
  High: Low: Average:
Temperature: 11.3 °C 5.7 °C 9.3 °C
Dew Point: 8.2 °C 4.3 °C 6 °C
Humidity: 93% 65% 81%
Wind Speed: 25.7km/h 0km/h 5.8km/h
Wind Gust: 30.6km/h - -
Wind- - SSW
Pressure: 998.3 hPa 989.8 hPa -
Precipitation: 8.9 mm    
Historical Graphs
 
 
Tabular Data for January 21, 2021
Time Temperature Dew Point Pressure Wind Wind Speed Wind Gust Humidity Rainfall Rate (Hourly) solar
00:01 10.9 °C 5.2 °C 996.6 hPa NNW 3.2 km/h 14.5 km/h 68% 0.0 mm 0 W/m2
00:06 10.8 °C 5.1 °C 996.6 hPa NW 4.7 km/h 12.9 km/h 68% 0.0 mm 0 W/m2
00:11 10.8 °C 5.1 °C 996.3 hPa NE 6.4 km/h 12.9 km/h 68% 0.0 mm 0 W/m2
00:16 10.8 °C 5.1 °C 996.6 hPa ENE 6.4 km/h 11.3 km/h 68% 0.0 mm 0 W/m2
00:21 10.8 °C 5.1 °C 996.3 hPa NNW 7.9 km/h 12.9 km/h 68% 0.0 mm 0 W/m2
00:26 10.8 °C 4.9 °C 996.3 hPa ENE 7.9 km/h 19.3 km/h 67% 0.0 mm 0 W/m2
00:31 10.9 °C 5.2 °C 996.3 hPa NE 4.7 km/h 6.4 km/h 68% 0.0 mm 0 W/m2
00:36 10.8 °C 5.1 °C 996.3 hPa North 6.4 km/h 19.3 km/h 68% 0.0 mm 0 W/m2
00:41 10.8 °C 5.1 °C 995.9 hPa ENE 7.9 km/h 14.5 km/h 68% 0.0 mm 0 W/m2
00:46 10.8 °C 5.1 °C 995.9 hPa NNE 7.9 km/h 9.7 km/h 68% 0.0 mm 0 W/m2
00:51 10.9 °C 5 °C 995.9 hPa North 1.4 km/h 12.9 km/h 67% 0.0 mm 0 W/m2
00:56 10.9 °C 5 °C 995.6 hPa SE 1.4 km/h 11.3 km/h 67% 0.0 mm 0 W/m2
01:01 10.9 °C 5 °C 995.6 hPa North 1.4 km/h 8 km/h 67% 0.0 mm 0 W/m2
01:06 10.9 °C 5 °C 995.6 hPa ESE 9.7 km/h 14.5 km/h 67% 0.0 mm 0 W/m2
01:11 11.1 °C 5.2 °C 995.3 hPa ESE 4.7 km/h 9.7 km/h 67% 0.0 mm 0 W/m2
01:16 11.1 °C 5 °C 995.3 hPa WSW 4.7 km/h 19.3 km/h 66% 0.0 mm 0 W/m2
01:21 11.1 °C 5 °C 995.3 hPa North 6.4 km/h 14.5 km/h 66% 0.0 mm 0 W/m2
01:26 11.1 °C 5 °C 995.3 hPa NW 7.9 km/h 19.3 km/h 66% 0.0 mm 0 W/m2
01:31 11.1 °C 5 °C 995.3 hPa NNW 3.2 km/h 16.1 km/h 66% 0.0 mm 0 W/m2
01:36 11.2 °C 5.3 °C 995.3 hPa North 6.4 km/h 11.3 km/h 67% 0.0 mm 0 W/m2
01:41 11.3 °C 5.2 °C 995.3 hPa NNW 6.4 km/h 12.9 km/h 66% 0.0 mm 0 W/m2
01:46 11.3 °C 5 °C 995.3 hPa ESE 3.2 km/h 20.9 km/h 65% 0.0 mm 0 W/m2
01:51 11.3 °C 5 °C 995.3 hPa NNW 9.7 km/h 9.7 km/h 65% 0.0 mm 0 W/m2
01:56 11.3 °C 5 °C 995.3 hPa North 6.4 km/h 17.7 km/h 65% 0.0 mm 0 W/m2
02:01 11.3 °C 5.2 °C 994.9 hPa WSW 13 km/h 14.5 km/h 66% 0.0 mm 0 W/m2
02:06 11.2 °C 5.1 °C 994.6 hPa NE 3.2 km/h 17.7 km/h 66% 0.0 mm 0 W/m2
02:11 11.2 °C 5.1 °C 994.6 hPa NNE 9.7 km/h 14.5 km/h 66% 0.0 mm 0 W/m2
02:16 11.2 °C 5.1 °C 994.6 hPa NE 7.9 km/h 14.5 km/h 66% 0.0 mm 0 W/m2
02:21 11.2 °C 5.1 °C 994.6 hPa NW 4.7 km/h 22.5 km/h 66% 0.0 mm 0 W/m2
02:26 11.1 °C 5 °C 994.6 hPa NE 7.9 km/h 17.7 km/h 66% 0.0 mm 0 W/m2
02:31 11.1 °C 5.2 °C 994.6 hPa North 7.9 km/h 9.7 km/h 67% 0.0 mm 0 W/m2
02:36 11 °C 5.1 °C 994.6 hPa WNW 9.7 km/h 17.7 km/h 67% 0.0 mm 0 W/m2
02:41 11.1 °C 5.2 °C 994.6 hPa NNW 7.9 km/h 9.7 km/h 67% 0.0 mm 0 W/m2
02:46 11 °C 5.1 °C 994.9 hPa North 4.7 km/h 9.7 km/h 67% 0.0 mm 0 W/m2
02:51 11.1 °C 5.2 °C 994.6 hPa ENE 6.4 km/h 11.3 km/h 67% 0.0 mm 0 W/m2
02:56 11.1 °C 5.2 °C 994.2 hPa NE 1.4 km/h 19.3 km/h 67% 0.0 mm 0 W/m2
03:01 11.1 °C 5.2 °C 994.2 hPa SE 4.7 km/h 9.7 km/h 67% 0.0 mm 0 W/m2
03:06 11 °C 5.1 °C 994.2 hPa NE 11.1 km/h 16.1 km/h 67% 0.0 mm 0 W/m2
03:11 10.9 °C 5 °C 993.9 hPa NW 4.7 km/h 16.1 km/h 67% 0.0 mm 0 W/m2
03:16 11.1 °C 5.2 °C 993.9 hPa ENE 6.4 km/h 8 km/h 67% 0.0 mm 0 W/m2
03:21 11.1 °C 5.2 °C 994.2 hPa NW 3.2 km/h 16.1 km/h 67% 0.0 mm 0 W/m2
03:26 11.1 °C 5.2 °C 994.2 hPa North 14.3 km/h 14.5 km/h 67% 0.0 mm 0 W/m2
03:31 11 °C 5.3 °C 993.9 hPa WNW 17.7 km/h 17.7 km/h 68% 0.0 mm 0 W/m2
03:37 11.1 °C 5.2 °C 993.9 hPa NNW 20.9 km/h 20.9 km/h 67% 0.0 mm 0 W/m2
03:42 11.1 °C 5.4 °C 993.9 hPa West 3.2 km/h 17.7 km/h 68% 0.0 mm 0 W/m2
03:47 11 °C 5.3 °C 993.9 hPa North 6.4 km/h 17.7 km/h 68% 0.0 mm 0 W/m2
03:52 10.9 °C 5.4 °C 993.9 hPa NNE 9.7 km/h 19.3 km/h 69% 0.0 mm 0 W/m2
03:57 10.9 °C 5.4 °C 993.6 hPa North 7.9 km/h 14.5 km/h 69% 0.0 mm 0 W/m2
04:02 10.9 °C 5.4 °C 993.6 hPa NNE 20.9 km/h 20.9 km/h 69% 0.0 mm 0 W/m2
04:07 11 °C 5.5 °C 993.6 hPa East 6.4 km/h 22.5 km/h 69% 0.0 mm 0 W/m2
04:12 10.9 °C 5.4 °C 993.6 hPa NNW 4.7 km/h 19.3 km/h 69% 0.0 mm 0 W/m2
04:17 10.8 °C 5.5 °C 993.6 hPa NW 4.7 km/h 22.5 km/h 70% 0.0 mm 0 W/m2
04:22 10.8 °C 5.5 °C 993.6 hPa NE 4.7 km/h 16.1 km/h 70% 0.0 mm 0 W/m2
04:27 10.9 °C 5.6 °C 993.9 hPa ENE 22.7 km/h 24.1 km/h 70% 0.0 mm 0 W/m2
04:32 10.9 °C 5.6 °C 993.9 hPa ENE 9.7 km/h 12.9 km/h 70% 0.0 mm 0 W/m2
04:37 10.9 °C 5.8 °C 993.9 hPa NW 13 km/h 24.1 km/h 71% 0.0 mm 0 W/m2
04:42 10.8 °C 5.8 °C 993.6 hPa NNW 3.2 km/h 17.7 km/h 71% 0.0 mm 0 W/m2
04:47 10.8 °C 5.5 °C 993.9 hPa NE 4.7 km/h 16.1 km/h 70% 0.0 mm 0 W/m2
04:52 10.8 °C 5.5 °C 993.9 hPa North 4.7 km/h 19.3 km/h 70% 0.0 mm 0 W/m2
04:57 11 °C 5.7 °C 993.6 hPa WNW 6.4 km/h 27.4 km/h 70% 0.0 mm 0 W/m2
05:02 11.1 °C 5.8 °C 993.9 hPa ENE 6.4 km/h 8 km/h 70% 0.0 mm 0 W/m2
05:07 11 °C 5.7 °C 993.6 hPa North 6.4 km/h 16.1 km/h 70% 0.0 mm 0 W/m2
05:12 11 °C 5.9 °C 993.6 hPa ENE 13 km/h 14.5 km/h 71% 0.0 mm 0 W/m2
05:17 10.9 °C 5.8 °C 993.6 hPa North 1.4 km/h 11.3 km/h 71% 0.0 mm 0 W/m2
05:22 10.9 °C 5.8 °C 993.2 hPa ESE 11.1 km/h 19.3 km/h 71% 0.0 mm 0 W/m2
05:27 11.1 °C 5.8 °C 993.6 hPa NNW 6.4 km/h 25.7 km/h 70% 0.0 mm 0 W/m2
05:32 11.1 °C 5.8 °C 993.6 hPa NW 6.4 km/h 16.1 km/h 70% 0.0 mm 0 W/m2
05:37 11.2 °C 5.9 °C 993.6 hPa WSW 4.7 km/h 25.7 km/h 70% 0.0 mm 0 W/m2
05:42 11.2 °C 5.7 °C 993.6 hPa North 4.7 km/h 16.1 km/h 69% 0.0 mm 0 W/m2
05:47 11.2 °C 5.9 °C 993.6 hPa East 4.7 km/h 11.3 km/h 70% 0.0 mm 0 W/m2
05:52 11.2 °C 5.9 °C 993.6 hPa NNW 14.3 km/h 20.9 km/h 70% 0.0 mm 0 W/m2
05:57 11.2 °C 5.9 °C 993.6 hPa West 11.1 km/h 14.5 km/h 70% 0.0 mm 0 W/m2
06:02 11.2 °C 5.9 °C 993.6 hPa SSE 1.4 km/h 16.1 km/h 70% 0.0 mm 0 W/m2
06:07 11.2 °C 5.9 °C 993.9 hPa ENE 1.4 km/h 17.7 km/h 70% 0.0 mm 0 W/m2
06:12 11.2 °C 5.9 °C 993.9 hPa SE 7.9 km/h 25.7 km/h 70% 0.0 mm 0 W/m2
06:17 11.3 °C 6 °C 993.6 hPa ENE 13 km/h 16.1 km/h 70% 0.0 mm 0 W/m2
06:22 11.2 °C 6.1 °C 993.9 hPa SW 4.7 km/h 29 km/h 71% 0.0 mm 0 W/m2
06:27 11.2 °C 6.3 °C 993.6 hPa East 14.3 km/h 22.5 km/h 72% 0.0 mm 0 W/m2
06:32 11 °C 6.3 °C 993.6 hPa ENE 22.7 km/h 29 km/h 73% 0.0 mm 0 W/m2
06:37 10.9 °C 6.3 °C 993.6 hPa NW 9.7 km/h 24.1 km/h 73% 0.0 mm 0 W/m2
06:42 10.8 °C 6.4 °C 993.6 hPa WNW 25.7 km/h 25.7 km/h 74% 0.0 mm 0 W/m2
06:47 10.8 °C 6.5 °C 993.6 hPa ENE 3.2 km/h 22.5 km/h 75% 0.0 mm 0 W/m2
06:52 10.8 °C 6.5 °C 993.6 hPa NNW 6.4 km/h 19.3 km/h 75% 0.0 mm 0 W/m2
06:57 10.7 °C 6.6 °C 993.6 hPa NNW 3.2 km/h 22.5 km/h 76% 0.0 mm 0 W/m2
07:02 10.6 °C 6.5 °C 993.6 hPa NNW 4.7 km/h 22.5 km/h 76% 0.0 mm 0 W/m2
07:07 10.5 °C 6.8 °C 993.6 hPa East 9.7 km/h 30.6 km/h 78% 0.0 mm 0 W/m2
07:12 10.4 °C 6.7 °C 993.6 hPa NNW 4.7 km/h 14.5 km/h 78% 0.0 mm 0 W/m2
07:17 10.3 °C 6.8 °C 993.6 hPa NW 9.7 km/h 30.6 km/h 79% 0.0 mm 0 W/m2
07:22 10.2 °C 6.9 °C 993.6 hPa NNW 6.4 km/h 11.3 km/h 80% 0.0 mm 0 W/m2
07:27 9.9 °C 7 °C 993.9 hPa NNE 3.2 km/h 17.7 km/h 82% 0.0 mm 0 W/m2
07:32 9.8 °C 7.1 °C 993.9 hPa North 4.7 km/h 12.9 km/h 83% 0.0 mm 0 W/m2
07:37 9.7 °C 7.1 °C 993.9 hPa NE 1.4 km/h 19.3 km/h 84% 0.0 mm 0 W/m2
07:42 9.6 °C 7.2 °C 993.9 hPa NNW 4.7 km/h 14.5 km/h 85% 0.2 mm 0 W/m2
07:47 9.4 °C 7.2 °C 994.2 hPa NW 4.7 km/h 19.3 km/h 86% 0.5 mm 0 W/m2
07:52 9.3 °C 7.2 °C 994.2 hPa ENE 1.4 km/h 12.9 km/h 87% 0.5 mm 0 W/m2
07:57 9.2 °C 7.1 °C 993.9 hPa North 3.2 km/h 12.9 km/h 87% 0.8 mm 0 W/m2
08:02 9.2 °C 7.3 °C 994.6 hPa NNW 9.7 km/h 16.1 km/h 88% 1.0 mm 0 W/m2
08:07 9.1 °C 7.4 °C 994.9 hPa WNW 4.7 km/h 22.5 km/h 89% 1.0 mm 0 W/m2
08:12 8.6 °C 6.6 °C 995.6 hPa West 6.4 km/h 25.7 km/h 87% 1.5 mm 0 W/m2
08:17 7.6 °C 5.7 °C 995.9 hPa WSW 14.3 km/h 19.3 km/h 88% 2.3 mm 0 W/m2
08:22 7 °C 5.3 °C 995.9 hPa WSW 6.4 km/h 16.1 km/h 89% 2.5 mm 0 W/m2
08:27 6.7 °C 5.2 °C 996.3 hPa WNW 6.4 km/h 16.1 km/h 90% 2.8 mm 0 W/m2
08:32 6.6 °C 5.2 °C 996.3 hPa West 9.7 km/h 14.5 km/h 91% 3.0 mm 0 W/m2
08:37 6.4 °C 5 °C 996.3 hPa West 3.2 km/h 14.5 km/h 91% 3.0 mm 0 W/m2
08:42 6.3 °C 4.9 °C 996.3 hPa West 4.7 km/h 12.9 km/h 91% 3.0 mm 5 W/m2
08:47 6.2 °C 5 °C 996.3 hPa WSW 13 km/h 14.5 km/h 92% 2.8 mm 5 W/m2
08:52 6.1 °C 4.9 °C 996.6 hPa West 6.4 km/h 16.1 km/h 92% 2.8 mm 0 W/m2
08:57 6 °C 4.8 °C 996.6 hPa West 4.7 km/h 9.7 km/h 92% 2.5 mm 0 W/m2
09:02 5.9 °C 4.7 °C 997.0 hPa West 4.7 km/h 9.7 km/h 92% 2.3 mm 5 W/m2
09:07 5.9 °C 4.7 °C 997.0 hPa WNW 4.7 km/h 6.4 km/h 92% 2.5 mm 9 W/m2
09:12 5.8 °C 4.6 °C 997.0 hPa WNW 1.4 km/h 11.3 km/h 92% 2.3 mm 9 W/m2
09:17 5.8 °C 4.6 °C 997.3 hPa SW 6.4 km/h 16.1 km/h 92% 1.5 mm 18 W/m2
09:22 5.8 °C 4.6 °C 997.3 hPa West 4.7 km/h 12.9 km/h 92% 1.5 mm 26 W/m2
09:27 5.8 °C 4.6 °C 997.3 hPa West 6.4 km/h 12.9 km/h 92% 1.3 mm 39 W/m2
09:32 5.7 °C 4.5 °C 997.3 hPa West 11.1 km/h 12.9 km/h 92% 1.3 mm 39 W/m2
09:37 5.7 °C 4.3 °C 997.6 hPa NW 6.4 km/h 9.7 km/h 91% 1.3 mm 30 W/m2
09:42 5.7 °C 4.3 °C 997.3 hPa Calm   4.8 km/h 91% 1.3 mm 21 W/m2
09:47 5.7 °C 4.3 °C 997.3 hPa NE 6.4 km/h 11.3 km/h 91% 1.0 mm 77 W/m2
09:52 5.7 °C 4.3 °C 997.6 hPa Calm   6.4 km/h 91% 1.0 mm 102 W/m2
09:57 5.8 °C 4.6 °C 997.6 hPa ENE 3.2 km/h 4.8 km/h 92% 1.0 mm 65 W/m2
10:02 5.8 °C 4.6 °C 997.6 hPa SSE 3.2 km/h 4.8 km/h 92% 1.0 mm 90 W/m2
10:07 5.8 °C 4.6 °C 997.6 hPa West 3.2 km/h 4.8 km/h 92% 0.8 mm 65 W/m2
10:12 5.9 °C 4.7 °C 997.3 hPa Calm   1.6 km/h 92% 0.8 mm 74 W/m2
10:17 5.9 °C 4.7 °C 997.6 hPa NW 6.4 km/h 6.4 km/h 92% 0.5 mm 70 W/m2
10:22 5.9 °C 4.5 °C 998.0 hPa ESE 6.4 km/h 6.4 km/h 91% 0.5 mm 83 W/m2
10:27 6 °C 4.6 °C 998.0 hPa ESE 1.4 km/h 6.4 km/h 91% 0.5 mm 60 W/m2
10:32 6.1 °C 4.7 °C 998.0 hPa South 1.4 km/h 6.4 km/h 91% 0.2 mm 67 W/m2
10:37 6.1 °C 4.7 °C 998.0 hPa SSE 1.4 km/h 4.8 km/h 91% 0.0 mm 134 W/m2
10:42 6.2 °C 4.8 °C 998.0 hPa West 1.4 km/h 11.3 km/h 91% 0.0 mm 77 W/m2
10:47 6.2 °C 4.8 °C 998.0 hPa WNW 3.2 km/h 6.4 km/h 91% 0.0 mm 93 W/m2
10:52 6.3 °C 4.9 °C 998.0 hPa WNW 1.4 km/h 4.8 km/h 91% 0.0 mm 127 W/m2
10:57 6.4 °C 5 °C 998.0 hPa NW 4.7 km/h 12.9 km/h 91% 0.0 mm 135 W/m2
11:02 6.5 °C 5 °C 998.3 hPa West 3.2 km/h 6.4 km/h 90% 0.0 mm 100 W/m2
11:07 6.7 °C 5.3 °C 998.3 hPa West 3.2 km/h 4.8 km/h 91% 0.0 mm 134 W/m2
11:12 6.7 °C 5.2 °C 998.3 hPa NW 4.7 km/h 9.7 km/h 90% 0.0 mm 146 W/m2
11:17 6.8 °C 5.1 °C 998.3 hPa WNW 4.7 km/h 14.5 km/h 89% 0.0 mm 123 W/m2
11:22 6.8 °C 5.1 °C 998.3 hPa Calm   4.8 km/h 89% 0.0 mm 116 W/m2
11:27 6.8 °C 5.1 °C 998.3 hPa WNW 9.7 km/h 14.5 km/h 89% 0.0 mm 127 W/m2
11:32 6.9 °C 5.1 °C 998.3 hPa West 1.4 km/h 8 km/h 88% 0.0 mm 134 W/m2
11:37 6.9 °C 5.2 °C 998.3 hPa South 1.4 km/h 4.8 km/h 89% 0.0 mm 134 W/m2
11:42 6.9 °C 5.1 °C 998.3 hPa NW 6.4 km/h 12.9 km/h 88% 0.0 mm 163 W/m2
11:47 6.9 °C 5.1 °C 998.3 hPa ESE 4.7 km/h 8 km/h 88% 0.0 mm 142 W/m2
11:52 7 °C 5.1 °C 998.0 hPa SW 4.7 km/h 14.5 km/h 88% 0.0 mm 132 W/m2
11:57 7 °C 5.1 °C 998.0 hPa SSW 4.7 km/h 4.8 km/h 88% 0.0 mm 137 W/m2
12:02 7 °C 5.1 °C 998.0 hPa NW 6.4 km/h 14.5 km/h 88% 0.0 mm 142 W/m2
12:07 7.1 °C 5.1 °C 998.3 hPa West 1.4 km/h 14.5 km/h 87% 0.0 mm 144 W/m2
12:12 7.1 °C 5.1 °C 998.3 hPa Calm   11.3 km/h 87% 0.0 mm 146 W/m2
12:17 7.2 °C 5.2 °C 998.3 hPa WNW 3.2 km/h 14.5 km/h 87% 0.0 mm 139 W/m2
12:22 7.3 °C 5.1 °C 998.0 hPa West 11.1 km/h 14.5 km/h 86% 0.0 mm 137 W/m2
12:27 7.3 °C 5.1 °C 998.3 hPa North 6.4 km/h 12.9 km/h 86% 0.0 mm 127 W/m2
12:32 7.4 °C 5.2 °C 998.3 hPa WNW 7.9 km/h 12.9 km/h 86% 0.0 mm 109 W/m2
12:37 7.5 °C 5.1 °C 998.3 hPa West 1.4 km/h 6.4 km/h 85% 0.0 mm 104 W/m2
12:42 7.6 °C 5.1 °C 998.3 hPa WNW 11.1 km/h 24.1 km/h 84% 0.0 mm 100 W/m2
12:47 7.7 °C 5.2 °C 998.3 hPa WNW 6.4 km/h 16.1 km/h 84% 0.0 mm 118 W/m2
12:52 7.8 °C 5.1 °C 998.3 hPa ENE 1.4 km/h 4.8 km/h 83% 0.0 mm 105 W/m2
12:57 7.9 °C 5.2 °C 998.0 hPa NW 1.4 km/h 6.4 km/h 83% 0.0 mm 127 W/m2
13:02 8 °C 5.1 °C 998.0 hPa NNE 1.4 km/h 6.4 km/h 82% 0.0 mm 132 W/m2
13:07 8.1 °C 5 °C 998.0 hPa WSW 17.7 km/h 17.7 km/h 81% 0.0 mm 128 W/m2
13:12 8.2 °C 5 °C 998.0 hPa SE 3.2 km/h 9.7 km/h 80% 0.0 mm 121 W/m2
13:17 8.3 °C 4.9 °C 998.0 hPa Calm   17.7 km/h 79% 0.0 mm 125 W/m2
13:22 8.3 °C 4.9 °C 998.0 hPa NW 7.9 km/h 9.7 km/h 79% 0.0 mm 125 W/m2
13:27 8.3 °C 4.9 °C 997.6 hPa ESE 3.2 km/h 4.8 km/h 79% 0.0 mm 125 W/m2
13:32 8.4 °C 4.8 °C 997.6 hPa NW 3.2 km/h 6.4 km/h 78% 0.0 mm 128 W/m2
13:37 8.4 °C 4.8 °C 998.0 hPa North 4.7 km/h 11.3 km/h 78% 0.0 mm 137 W/m2
13:42 8.4 °C 4.8 °C 997.6 hPa WNW 3.2 km/h 8 km/h 78% 0.0 mm 137 W/m2
13:47 8.5 °C 4.7 °C 997.6 hPa NW 3.2 km/h 6.4 km/h 77% 0.0 mm 123 W/m2
13:52 8.6 °C 4.8 °C 997.3 hPa ENE 13 km/h 16.1 km/h 77% 0.0 mm 128 W/m2
13:57 8.6 °C 4.8 °C 997.3 hPa ESE 3.2 km/h 9.7 km/h 77% 0.0 mm 134 W/m2
14:02 8.7 °C 4.9 °C 997.3 hPa West 3.2 km/h 12.9 km/h 77% 0.0 mm 132 W/m2
14:07 8.8 °C 4.8 °C 997.0 hPa NW 3.2 km/h 6.4 km/h 76% 0.0 mm 135 W/m2
14:12 8.8 °C 4.8 °C 997.0 hPa SE 3.2 km/h 12.9 km/h 76% 0.0 mm 130 W/m2
14:18 8.9 °C 4.9 °C 997.0 hPa WNW 4.7 km/h 6.4 km/h 76% 0.0 mm 111 W/m2
14:23 9 °C 4.8 °C 997.0 hPa South 6.4 km/h 11.3 km/h 75% 0.0 mm 118 W/m2
14:28 9.1 °C 4.9 °C 997.0 hPa ESE 6.4 km/h 6.4 km/h 75% 0.0 mm 118 W/m2
14:33 9.1 °C 4.9 °C 997.0 hPa NW 3.2 km/h 6.4 km/h 75% 0.0 mm 113 W/m2
14:38 9.2 °C 4.8 °C 996.6 hPa NNE 3.2 km/h 12.9 km/h 74% 0.0 mm 109 W/m2
14:43 9.2 °C 4.8 °C 996.6 hPa WNW 6.4 km/h 6.4 km/h 74% 0.0 mm 109 W/m2
14:48 9.3 °C 4.9 °C 996.6 hPa WNW 3.2 km/h 11.3 km/h 74% 0.0 mm 109 W/m2
14:53 9.3 °C 4.9 °C 996.6 hPa NE 4.7 km/h 12.9 km/h 74% 0.0 mm 97 W/m2
14:58 9.3 °C 4.7 °C 996.6 hPa WNW 16.3 km/h 16.1 km/h 73% 0.0 mm 104 W/m2
15:03 9.3 °C 4.7 °C 996.6 hPa ENE 7.9 km/h 11.3 km/h 73% 0.0 mm 97 W/m2
15:08 9.3 °C 4.7 °C 996.3 hPa NW 7.9 km/h 8 km/h 73% 0.0 mm 74 W/m2
15:13 9.3 °C 4.9 °C 996.3 hPa WNW 7.9 km/h 9.7 km/h 74% 0.0 mm 62 W/m2
15:18 9.3 °C 4.9 °C 996.3 hPa WNW 6.4 km/h 6.4 km/h 74% 0.0 mm 53 W/m2
15:23 9.3 °C 5.1 °C 996.3 hPa ESE 1.4 km/h 3.2 km/h 75% 0.0 mm 35 W/m2
15:28 9.3 °C 5.1 °C 996.3 hPa Calm   6.4 km/h 75% 0.0 mm 28 W/m2
15:33 9.2 °C 5.2 °C 996.3 hPa NE 3.2 km/h 4.8 km/h 76% 0.0 mm 25 W/m2
15:38 9.2 °C 5.4 °C 996.3 hPa North 1.4 km/h 3.2 km/h 77% 0.0 mm 23 W/m2
15:43 9.1 °C 5.5 °C 996.3 hPa Calm   4.8 km/h 78% 0.0 mm 32 W/m2
15:48 9.1 °C 5.7 °C 996.3 hPa North 1.4 km/h 4.8 km/h 79% 0.0 mm 32 W/m2
15:53 9 °C 5.7 °C 995.9 hPa West 3.2 km/h 4.8 km/h 80% 0.0 mm 16 W/m2
15:58 8.9 °C 5.8 °C 995.9 hPa NNE 3.2 km/h 3.2 km/h 81% 0.0 mm 18 W/m2
16:03 8.8 °C 5.9 °C 995.9 hPa ENE 4.7 km/h 6.4 km/h 82% 0.0 mm 23 W/m2
16:08 8.8 °C 6.1 °C 995.9 hPa North 1.4 km/h 3.2 km/h 83% 0.0 mm 21 W/m2
16:13 8.7 °C 6.1 °C 995.9 hPa Calm   6.4 km/h 84% 0.2 mm 23 W/m2
16:18 8.6 °C 6.4 °C 995.9 hPa NE 4.7 km/h 6.4 km/h 86% 0.2 mm 16 W/m2
16:23 8.5 °C 6.5 °C 995.6 hPa North 1.4 km/h 3.2 km/h 87% 0.2 mm 16 W/m2
16:28 8.4 °C 6.4 °C 995.6 hPa North 3.2 km/h 6.4 km/h 87% 0.2 mm 14 W/m2
16:33 8.4 °C 6.5 °C 995.6 hPa East 4.7 km/h 12.9 km/h 88% 0.2 mm 9 W/m2
16:38 8.4 °C 6.5 °C 995.6 hPa WSW 1.4 km/h 12.9 km/h 88% 0.2 mm 9 W/m2
16:43 8.4 °C 6.7 °C 995.6 hPa Calm   3.2 km/h 89% 0.2 mm 7 W/m2
16:48 8.4 °C 6.7 °C 995.3 hPa NNW 1.4 km/h 3.2 km/h 89% 0.2 mm 5 W/m2
16:53 8.4 °C 6.7 °C 995.3 hPa NNE 1.4 km/h 3.2 km/h 89% 0.2 mm 5 W/m2
16:58 8.4 °C 6.7 °C 994.9 hPa ESE 3.2 km/h 6.4 km/h 89% 0.2 mm 0 W/m2
17:03 8.4 °C 6.7 °C 994.9 hPa NW 3.2 km/h 3.2 km/h 89% 0.2 mm 0 W/m2
17:08 8.4 °C 6.7 °C 994.6 hPa NE 4.7 km/h 8 km/h 89% 0.2 mm 0 W/m2
17:13 8.4 °C 6.7 °C 994.6 hPa South 3.2 km/h 14.5 km/h 89% 0.0 mm 0 W/m2
17:18 8.4 °C 6.7 °C 994.6 hPa North 1.4 km/h 4.8 km/h 89% 0.0 mm 0 W/m2
17:23 8.4 °C 6.7 °C 994.2 hPa ENE 4.7 km/h 11.3 km/h 89% 0.0 mm 0 W/m2
17:28 8.5 °C 6.8 °C 994.2 hPa ESE 3.2 km/h 3.2 km/h 89% 0.0 mm 0 W/m2
17:33 8.5 °C 6.8 °C 994.2 hPa East 3.2 km/h 11.3 km/h 89% 0.0 mm 0 W/m2
17:38 8.4 °C 6.9 °C 993.9 hPa ENE 3.2 km/h 4.8 km/h 90% 0.2 mm 0 W/m2
17:43 8.4 °C 6.9 °C 993.9 hPa ENE 1.4 km/h 3.2 km/h 90% 0.5 mm 0 W/m2
17:48 8.4 °C 6.9 °C 993.9 hPa NE 1.4 km/h 6.4 km/h 90% 0.5 mm 0 W/m2
17:53 8.3 °C 6.9 °C 993.9 hPa ESE 3.2 km/h 9.7 km/h 91% 0.8 mm 0 W/m2
17:58 8.3 °C 6.9 °C 993.9 hPa Calm   4.8 km/h 91% 1.0 mm 0 W/m2
18:03 8.2 °C 7 °C 993.6 hPa SE 3.2 km/h 14.5 km/h 92% 1.5 mm 0 W/m2
18:08 8.1 °C 6.9 °C 993.9 hPa East 4.7 km/h 4.8 km/h 92% 1.5 mm 0 W/m2
18:13 8.1 °C 7 °C 993.6 hPa North 1.4 km/h 4.8 km/h 93% 1.8 mm 0 W/m2
18:18 8.1 °C 7 °C 993.6 hPa NNE 3.2 km/h 6.4 km/h 93% 2.0 mm 0 W/m2
18:23 8.3 °C 7.2 °C 993.2 hPa NE 1.4 km/h 14.5 km/h 93% 2.3 mm 0 W/m2
18:28 8.4 °C 7.3 °C 993.2 hPa North 3.2 km/h 8 km/h 93% 2.3 mm 0 W/m2
18:33 8.7 °C 7.6 °C 993.2 hPa North 1.4 km/h 12.9 km/h 93% 2.5 mm 0 W/m2
18:38 8.8 °C 7.7 °C 993.2 hPa NE 7.9 km/h 14.5 km/h 93% 2.3 mm 0 W/m2
18:43 8.9 °C 7.8 °C 992.9 hPa ENE 6.4 km/h 9.7 km/h 93% 2.3 mm 0 W/m2
18:48 9 °C 7.9 °C 992.9 hPa East 1.4 km/h 14.5 km/h 93% 2.3 mm 0 W/m2
18:53 9 °C 7.9 °C 992.9 hPa NE 4.7 km/h 4.8 km/h 93% 2.3 mm 0 W/m2
18:58 9 °C 7.9 °C 992.5 hPa WNW 4.7 km/h 4.8 km/h 93% 2.0 mm 0 W/m2
19:03 9.1 °C 8 °C 992.5 hPa NE 4.7 km/h 16.1 km/h 93% 1.5 mm 0 W/m2
19:08 9.2 °C 8.1 °C 992.2 hPa NW 6.4 km/h 8 km/h 93% 1.5 mm 0 W/m2
19:13 9.2 °C 8 °C 992.2 hPa NW 3.2 km/h 3.2 km/h 92% 1.3 mm 0 W/m2
19:18 9.3 °C 8.1 °C 991.9 hPa ENE 9.7 km/h 11.3 km/h 92% 0.8 mm 0 W/m2
19:23 9.4 °C 8.2 °C 991.9 hPa East 4.7 km/h 11.3 km/h 92% 0.8 mm 0 W/m2
19:28 9.5 °C 8.1 °C 991.9 hPa NNE 1.4 km/h 11.3 km/h 91% 0.5 mm 0 W/m2
19:33 9.6 °C 8.2 °C 991.9 hPa NNE 7.9 km/h 14.5 km/h 91% 0.5 mm 0 W/m2
19:38 9.6 °C 8 °C 991.9 hPa East 1.4 km/h 6.4 km/h 90% 0.5 mm 0 W/m2
19:43 9.6 °C 8 °C 991.5 hPa East 1.4 km/h 14.5 km/h 90% 0.5 mm 0 W/m2
19:48 9.7 °C 8.1 °C 991.5 hPa North 6.4 km/h 9.7 km/h 90% 0.5 mm 0 W/m2
19:53 9.7 °C 8.1 °C 991.5 hPa NW 4.7 km/h 6.4 km/h 90% 0.5 mm 0 W/m2
19:58 9.7 °C 8.1 °C 991.5 hPa WNW 14.3 km/h 16.1 km/h 90% 0.5 mm 0 W/m2
20:03 9.8 °C 8.1 °C 991.5 hPa East 11.1 km/h 20.9 km/h 89% 0.5 mm 0 W/m2
20:08 9.7 °C 8 °C 991.2 hPa NNE 6.4 km/h 16.1 km/h 89% 0.5 mm 0 W/m2
20:13 9.7 °C 8 °C 991.2 hPa WNW 13 km/h 20.9 km/h 89% 0.5 mm 0 W/m2
20:18 9.8 °C 8.1 °C 990.9 hPa NNE 6.4 km/h 14.5 km/h 89% 0.5 mm 0 W/m2
20:23 9.8 °C 8.1 °C 991.2 hPa NNW 7.9 km/h 8 km/h 89% 0.5 mm 0 W/m2
20:29 9.8 °C 7.9 °C 991.2 hPa ENE 7.9 km/h 9.7 km/h 88% 0.5 mm 0 W/m2
20:34 9.9 °C 8 °C 990.9 hPa NNE 6.4 km/h 20.9 km/h 88% 0.2 mm 0 W/m2
20:39 9.9 °C 8 °C 990.9 hPa North 7.9 km/h 14.5 km/h 88% 0.2 mm 0 W/m2
20:44 10 °C 7.9 °C 991.2 hPa WNW 6.4 km/h 19.3 km/h 87% 0.2 mm 0 W/m2
20:49 9.9 °C 7.8 °C 991.2 hPa North 4.7 km/h 12.9 km/h 87% 0.0 mm 0 W/m2
20:54 10 °C 7.9 °C 991.2 hPa SSW 7.9 km/h 12.9 km/h 87% 0.0 mm 0 W/m2
20:59 10.1 °C 7.9 °C 991.2 hPa NNW 13 km/h 22.5 km/h 86% 0.2 mm 0 W/m2
21:04 10.1 °C 7.9 °C 991.2 hPa WSW 3.2 km/h 22.5 km/h 86% 0.2 mm 0 W/m2
21:09 10.1 °C 7.9 °C 991.2 hPa WNW 11.1 km/h 17.7 km/h 86% 0.2 mm 0 W/m2
21:14 10.1 °C 7.9 °C 990.9 hPa NNW 4.7 km/h 9.7 km/h 86% 0.2 mm 0 W/m2
21:19 10.1 °C 7.9 °C 990.9 hPa NW 17.7 km/h 17.7 km/h 86% 0.2 mm 0 W/m2
21:24 10.1 °C 7.9 °C 990.9 hPa NNE 3.2 km/h 12.9 km/h 86% 0.2 mm 0 W/m2
21:29 10.1 °C 7.9 °C 990.5 hPa WNW 19.5 km/h 22.5 km/h 86% 0.5 mm 0 W/m2
21:34 10 °C 7.9 °C 990.5 hPa ENE 6.4 km/h 17.7 km/h 87% 0.5 mm 0 W/m2
21:39 9.9 °C 7.8 °C 990.5 hPa North 1.4 km/h 22.5 km/h 87% 0.5 mm 0 W/m2
21:44 9.8 °C 7.7 °C 990.5 hPa North 3.2 km/h 14.5 km/h 87% 0.5 mm 0 W/m2
21:49 9.8 °C 7.7 °C 990.5 hPa NNW 4.7 km/h 9.7 km/h 87% 0.5 mm 0 W/m2
21:54 9.8 °C 7.9 °C 990.5 hPa NNW 6.4 km/h 14.5 km/h 88% 0.5 mm 0 W/m2
21:59 9.8 °C 7.9 °C 990.9 hPa ENE 11.1 km/h 19.3 km/h 88% 0.5 mm 0 W/m2
22:04 9.8 °C 7.9 °C 990.5 hPa NW 13 km/h 16.1 km/h 88% 0.5 mm 0 W/m2
22:09 9.8 °C 7.9 °C 990.2 hPa WNW 6.4 km/h 8 km/h 88% 0.5 mm 0 W/m2
22:14 9.9 °C 7.8 °C 990.5 hPa NNW 3.2 km/h 16.1 km/h 87% 0.5 mm 0 W/m2
22:19 9.9 °C 7.8 °C 990.5 hPa West 3.2 km/h 16.1 km/h 87% 0.5 mm 0 W/m2
22:24 9.9 °C 7.8 °C 990.2 hPa NW 7.9 km/h 14.5 km/h 87% 0.5 mm 0 W/m2
22:29 10 °C 7.9 °C 990.2 hPa North 3.2 km/h 14.5 km/h 87% 0.5 mm 0 W/m2
22:34 10.1 °C 7.9 °C 990.2 hPa North 3.2 km/h 19.3 km/h 86% 0.5 mm 0 W/m2
22:39 10.1 °C 7.9 °C 990.2 hPa East 1.4 km/h 9.7 km/h 86% 0.5 mm 0 W/m2
22:44 10.2 °C 7.8 °C 990.2 hPa NNW 3.2 km/h 19.3 km/h 85% 0.5 mm 0 W/m2
22:49 10.2 °C 7.8 °C 990.2 hPa Calm   6.4 km/h 85% 0.5 mm 0 W/m2
22:54 10.3 °C 7.5 °C 990.2 hPa East 3.2 km/h 9.7 km/h 83% 0.2 mm 0 W/m2
22:59 10.3 °C 7.5 °C 990.2 hPa NW 4.7 km/h 16.1 km/h 83% 0.2 mm 0 W/m2
23:04 10.4 °C 7.5 °C 989.8 hPa NE 1.4 km/h 14.5 km/h 82% 0.2 mm 0 W/m2
23:09 10.5 °C 7.4 °C 989.8 hPa NNE 7.9 km/h 16.1 km/h 81% 0.2 mm 0 W/m2
23:14 10.5 °C 7.4 °C 989.8 hPa NE 6.4 km/h 11.3 km/h 81% 0.2 mm 0 W/m2
23:19 10.5 °C 7.2 °C 989.8 hPa West 4.7 km/h 8 km/h 80% 0.0 mm 0 W/m2
23:24 10.6 °C 7.1 °C 989.8 hPa NNW 9.7 km/h 16.1 km/h 79% 0.0 mm 0 W/m2
23:29 10.6 °C 7.1 °C 989.8 hPa NNW 7.9 km/h 14.5 km/h 79% 0.0 mm 0 W/m2
23:34 10.7 °C 7 °C 989.8 hPa WNW 3.2 km/h 8 km/h 78% 0.0 mm 0 W/m2
23:39 10.7 °C 7 °C 989.8 hPa North 7.9 km/h 16.1 km/h 78% 0.0 mm 0 W/m2
23:44 10.7 °C 7 °C 990.2 hPa WNW 22.7 km/h 22.5 km/h 78% 0.0 mm 0 W/m2
23:49 10.7 °C 7 °C 989.8 hPa NNW 7.9 km/h 11.3 km/h 78% 0.0 mm 0 W/m2
23:54 10.6 °C 6.9 °C 989.8 hPa ENE 4.7 km/h 14.5 km/h 78% 0.0 mm 0 W/m2
23:59 10.6 °C 6.9 °C 989.8 hPa ENE 20.9 km/h 20.9 km/h 78% 0.0 mm 0 W/m2
Juneau County Weather
Compliments of Weather Underground - 4 mb